Overview Statistics Trail Chart Weather Telemetry Raw packets
 

This is the latest recevied weather packets stored in our database for station/object N6ZHV-13. If no packets are shown the sender has not sent any weather packets the latest 10 day(s).

<< 59 60 61 62 63 64 65 >>
Time Temp. Humidity Pressure Rain* Wind** Luminosity Snow
1788287227 26.11° C 42% 1011.3 hPa 0 mm - - -
1788286927 25.56° C 46% 1011.3 hPa 0 mm - - -
1788286627 25° C 48% 1011.4 hPa 0 mm - - -
1788286327 25° C 50% 1011.4 hPa 0 mm - - -
1788286027 25° C 52% 1011.4 hPa 0 mm - - -
1788285727 24.44° C 53% 1011.4 hPa 0 mm - - -
1788285427 25° C 54% 1011.5 hPa 0 mm - - -
1788285127 24.44° C 57% 1011.5 hPa 0 mm - - -
1788284827 24.44° C 57% 1011.5 hPa 0 mm - - -
1788284527 23.89° C 61% 1011.5 hPa 0 mm - - -
1788284227 23.33° C 61% 1011.5 hPa 0 mm - - -
1788283927 23.33° C 62% 1011.5 hPa 0 mm - - -
1788283627 23.33° C 64% 1011.5 hPa 0 mm - - -
1788283327 22.78° C 64% 1011.4 hPa 0 mm - - -
1788283027 23.33° C 64% 1011.4 hPa 0 mm - - -
1788282745 23.33° C 65% 1011.3 hPa 0 mm - - -
1788282727 23.33° C 64% 1011.4 hPa 0 mm - - -
1788282427 23.33° C 65% 1011.3 hPa 0 mm - - -
1788282127 22.78° C 65% 1011.3 hPa 0 mm - - -
1788281827 22.78° C 64% 1011.3 hPa 0 mm - - -
1788281527 22.22° C 67% 1011.4 hPa 0 mm - - -
1788281227 22.22° C 66% 1011.3 hPa 0 mm - - -
1788280927 21.67° C 67% 1011.3 hPa 0 mm - - -
1788280627 21.67° C 69% 1011.3 hPa 0 mm - - -
1788280327 21.67° C 70% 1011.1 hPa 0 mm - - -

* Rain latest hour (hover to see other rain measurements)
** Current wind speed in m/s (hover to see current wind gust speed)